Terminal Aerodrome Forecast
Issued by NWS

Home | Current Version | Previous Version | Text Only | Print | Product List | Glossary On
Versions: 1 2 3 4 5 6 7 8 9 10 11 12 13 14 15 16
000
FTUS46 KLOX 311500 AAB
TAFLGB
TAF AMD
KLGB 311510Z 3115/0112 00000KT P6SM OVC012
     FM311700 VRB03KT P6SM SCT025 BKN200
     FM312100 21007KT P6SM SCT030 SCT250
     FM312300 28007KT P6SM SCT250
     FM010400 VRB03KT P6SM SKC=

USA.gov is the U.S. government's official web portal to all federal, state and local government web resources and services.